San Juan, PR

1:51 PM AST on November 24, 2017 (GMT -0400)
Luis Munoz Marin International

Weather History for TJSJ - March, 2012

Change the Weather History Date:

Saturday, March 24, 2012

  Actual Average Record
Temperature  
Mean Temperature 78 °F 79 °F  
Max Temperature 84 °F 85 °F 92 °F (2005)
Min Temperature 72 °F 73 °F 65 °F (1962)
Degree Days  
Heating Degree Days 0 0  
Month to date heating degree days 0 0  
Since 1 July heating degree days 0 0  
Cooling Degree Days 13 14  
Month to date cooling degree days 331 330  
Year to date cooling degree days 1095 1081  
Growing Degree Days 28 (Base 50)    
Moisture  
Dew Point 69 °F    
Average Humidity 73    
Maximum Humidity 87    
Minimum Humidity 58    
Precipitation  
Precipitation 0.15 in 0.07 in 1.44 in (1909)
Month to date precipitation 2.90 1.45  
Year to date precipitation 8.60 7.60  
Snow  
Snow 0.00 in 0.00 in - ()
Month to date snowfall 0.0  
Since 1 July snowfall 0.0  
Snow Depth 0.00 in    
Sea Level Pressure  
Sea Level Pressure 29.98 in    
Wind  
Wind Speed 11 mph (East)    
Max Wind Speed 21 mph    
Max Gust Speed 26 mph    
Visibility 10 miles    
Events Rain    
T = Trace of Precipitation, MM = Missing Value Source: NWS Daily Summary

Daily Weather History Graph

Daily Weather History Graph

Search for Another Location

Airport or City:

Trip Planner

Search our weather history database for the weather conditions in past years. The results will help you decide how hot, cold, wet, or windy it might be!

Date:

Astronomy

Mar. 24, 2012 Rise Set
Actual Time 6:24 AM AST 6:35 PM AST
Civil Twilight 6:02 AM AST 6:57 PM AST
Nautical Twilight 5:37 AM AST 7:23 PM AST
Astronomical Twilight 5:11 AM AST 7:48 PM AST
Moon 7:24 AM AST 8:24 PM AST
Length of Visible Light 12h 55m
Length of Day
12h 11m
Waxing Crescent, 4% of the Moon is Illuminated
Mar 24
Waxing Crescent
Mar 30
First Quarter
Apr 6
Full
Apr 13
Last Quarter
Apr 21
New

Hourly Weather History & Observations

Time (AST) Temp. Heat Index Dew Point Humidity Pressure Visibility Wind Dir Wind Speed Gust Speed Precip Events Conditions
12:56 AM 73.9 °F - 69.1 °F 85% 29.97 in 10.0 mi NE 10.4 mph - 0.14 in   Mostly Cloudy
1:56 AM 73.9 °F - 69.1 °F 85% 29.95 in 10.0 mi SE 3.5 mph - 0.00 in   Scattered Clouds
2:56 AM 75.0 °F - 69.1 °F 82% 29.94 in 10.0 mi ENE 8.1 mph - N/A   Mostly Cloudy
3:56 AM 75.0 °F - 68.0 °F 79% 29.94 in 10.0 mi East 6.9 mph - N/A   Scattered Clouds
4:56 AM 73.9 °F - 69.1 °F 85% 29.95 in 10.0 mi East 9.2 mph - 0.00 in   Mostly Cloudy
5:56 AM 73.9 °F - 69.1 °F 85% 29.96 in 10.0 mi ESE 3.5 mph - N/A   Mostly Cloudy
6:56 AM 73.9 °F - 68.0 °F 82% 29.98 in 10.0 mi ESE 5.8 mph - N/A   Mostly Cloudy
7:56 AM 73.9 °F - 68.0 °F 82% 29.99 in 10.0 mi SE 3.5 mph - N/A   Scattered Clouds
8:56 AM 75.0 °F - 68.0 °F 79% 30.02 in 9.0 mi East 16.1 mph 20.7 mph 0.01 in   Mostly Cloudy
9:56 AM 80.1 °F 82.9 °F 69.1 °F 69% 30.03 in 10.0 mi ENE 15.0 mph 20.7 mph N/A   Mostly Cloudy
10:56 AM 80.1 °F 82.7 °F 68.0 °F 67% 30.02 in 10.0 mi ENE 15.0 mph 21.9 mph N/A   Mostly Cloudy
11:56 AM 81.0 °F 83.8 °F 68.0 °F 65% 30.01 in 10.0 mi East 15.0 mph - N/A   Mostly Cloudy
12:56 PM 82.0 °F 84.5 °F 66.9 °F 60% 29.98 in 10.0 mi ENE 19.6 mph - N/A   Scattered Clouds
1:56 PM 81.0 °F 84.1 °F 69.1 °F 67% 29.96 in 10.0 mi ENE 16.1 mph 24.2 mph N/A   Mostly Cloudy
2:56 PM 81.0 °F 84.1 °F 69.1 °F 67% 29.95 in 10.0 mi ENE 16.1 mph 25.3 mph N/A   Mostly Cloudy
3:56 PM 81.0 °F 83.8 °F 68.0 °F 65% 29.95 in 10.0 mi ENE 15.0 mph 21.9 mph N/A   Mostly Cloudy
4:56 PM 78.1 °F - 70.0 °F 76% 29.95 in 9.0 mi ENE 15.0 mph - 0.00 in Rain Light Rain
5:56 PM 78.1 °F - 69.1 °F 74% 29.96 in 9.0 mi ENE 16.1 mph - 0.00 in Rain Light Rain
6:56 PM 78.1 °F - 69.1 °F 74% 29.96 in 9.0 mi East 13.8 mph 20.7 mph 0.00 in Rain Light Rain
7:56 PM 75.9 °F - 70.0 °F 82% 29.99 in 9.0 mi East 11.5 mph - 0.00 in Rain Light Rain
8:56 PM 73.9 °F - 70.0 °F 87% 30.00 in 9.0 mi SE 6.9 mph - 0.23 in Rain Rain
9:56 PM 75.0 °F - 71.1 °F 87% 30.02 in 9.0 mi ENE 10.4 mph - 0.07 in Rain Light Rain
10:56 PM 75.0 °F - 71.1 °F 87% 30.01 in 10.0 mi ENE 15.0 mph 20.7 mph 0.01 in   Scattered Clouds
11:56 PM 73.9 °F - 71.1 °F 91% 30.00 in 9.0 mi East 9.2 mph - 0.00 in Rain Light Rain